Weather Service Report


226 
ASUS41 KCTP 200710
RWRCTP

REGIONAL WEATHER ROUNDUP
NATIONAL WEATHER SERVICE STATE COLLEGE PA
200 AM EST SAT DEC 20 2014

Note: "fair" indicates few or no clouds below 12,000 feet with no 
significant weather and/or obstructions to visibility.

* = STATION THAT DOES NOT REPORT PRECIPITATION /E.G. RAIN...SNOW...ETC/
    THUNDER OR FOG.

PAZ002>004-007>009-013>016-020>023-029>032-200800-
WESTERN PENNSYLVANIA
  
CITY           SKY/WX    TMP DP  RH WIND       PRES   REMARKS
ERIE           CLOUDY    29  19  66 NW8       30.24S                  
MEADVILLE      CLOUDY    27  20  75 W5        30.20S                  
FRANKLIN*      CLOUDY    27  18  69 W3        30.21S                  
NEW CASTLE       N/A     26  18  72 CALM      30.27R                  
BEAVER COUNTY  NOT AVBL                                               
BUTLER*        CLOUDY    27  18  69 CALM      30.26R                  
PITTSBURGH INT CLOUDY    29  19  66 CALM      30.24R                  
PITTSBURGH     CLOUDY    28  17  63 CALM      30.23R                  
INDIANA*       CLOUDY    27  19  74 W6        30.26R                  
LATROBE        CLOUDY    28  18  64 CALM      30.26R                  
WASHINGTON CO* NOT AVBL                                               
$$

PAZ004>006-010>012-017>019-024>028-033>037-041-042-045-046-049>053-200800-
CENTRAL PENNSYLVANIA
  
CITY           SKY/WX    TMP DP  RH WIND       PRES   REMARKS
BRADFORD       CLOUDY    22  18  85 N6        30.13F WCI  14          
DUBOIS         MOCLDY    18  16  92 W6        30.16S WCI  10          
CLEARFIELD     CLOUDY    25  18  74 NW5       30.18S                  
JOHNSTOWN      CLOUDY    21  15  78 NW8       30.16R WCI  11          
ALTOONA        CLOUDY    25  18  74 NW7       30.20S                  
STATE COLLEGE  CLOUDY    26  18  73 NW3       30.20R                  
WILLIAMSPORT   CLOUDY    30  18  60 NW6       30.21F                  
SELINSGROVE    CLOUDY    31  20  63 N12       30.21F                  
FT INDIANTOWN  CLOUDY    32  20  60 VRB2      30.21R                  
CAPITAL CITY   CLOUDY    31  21  66 W7        30.23R                  
HARRISBURG     CLOUDY    31  21  66 W9        30.22R                  
YORK           MOCLDY    27  20  75 CALM      30.21S                  
$$

PAZ038>040-043-044-047-048-054-055-060>062-067>071-200800-
EASTERN PENNSYLVANIA
  
CITY           SKY/WX    TMP DP  RH WIND       PRES   REMARKS
SCRANTON       CLOUDY    29  19  66 N8        30.17S                  
MOUNT POCONO   CLOUDY    23  18  81 NW10G18   30.09S WCI  12          
ALLENTOWN      CLOUDY    32  21  64 N6        30.19R                  
QUAKERTOWN*    CLOUDY    32  23  69 N8        30.19R                  
READING        CLOUDY    33  20  58 N12       30.19R                  
LANCASTER      CLOUDY    30  21  69 W9        30.20R                  
COATESVILLE    CLOUDY    32  25  74 W7        30.19R                  
POTTSTOWN      CLOUDY    32  21  64 N10       30.20R                  
BLUE BELL      CLOUDY    34  25  69 CALM      30.19R                  
DOYLESTOWN     CLOUDY    30  22  72 N9        30.18R                  
WILLOW GROVE   NOT AVBL                                               
NORTH PHILA    CLOUDY    35  21  56 N8        30.22R                  
PHILADELPHIA   CLOUDY    34  21  59 W3        30.22R                  
$$

Return to Home page


Western Regional Climate Center, wrcc@dri.edu